Flag for Taiwan Weather past 2 weeks in Taipei, Taiwan

Now
82 °F

Sprinkles. Partly sunny.


Feels Like: 89 °F
Forecast: 84 / 94 °F
Wind: 32 mph from East

Location: Sungshan / Taipei

Current Time: Jul 23, 2014 at 9:20:43 AM

Latest Report: Jul 23, 2014 at 9:00 AM


Visibility: 4 mi

Pressure: 29.24 "Hg

Humidity: 79%

Dew point: 75 °F

Location of TaipeiLocation

Historic Weather in Taipei — Graph

°F

Taipei temperature yesterday

Maximum temperature yesterday: 90 °F (at 12:00 PM)
Minimum temperature yesterday: 79 °F (at 5:30 PM)
Average temperature yesterday: 84 °F

Past Weeks' High & Low Weather Summary

 TemperatureHumidityPressure
High99 °F (Jul 9, 12:00 PM)89% (Jul 22, 4:30 AM)29.86 "Hg (Jul 22, 4:30 AM)
Low79 °F (Jul 22, 5:30 PM)37% (Jul 9, 12:00 PM)29.36 "Hg (Jul 23, 12:48 AM)
Average88 °F65%29.71 "Hg
* Reported Jul 8 1:00 AM — Jul 23 1:00 AM, Taipei, Weather by CustomWeather, © 2014

Note: Actual official high and low records may vary slightly from our data, if they occured in-between our weather recording intervals... More about our weather records

Advertising

Taipei weather history for previous 24 hours

 ConditionsComfort  
Time TempWeatherWind HumidityBarometerVisibility
1:00 AM
Jul 23
79 °FRain showers. Partly cloudy.28 mph84%29.36 "Hg2 mi
12:48 AM81 °FRain showers. Partly cloudy.26 mph79%29.36 "Hg2 mi
12:00 AM81 °FRain showers. Partly cloudy.28 mph79%29.42 "Hg2 mi
11:52 PM
Jul 22
81 °FRain showers. Partly cloudy.28 mph79%29.42 "Hg2 mi
11:30 PM82 °FSprinkles. Passing clouds.28 mph74%29.39 "HgN/A
11:00 PM84 °FSprinkles. Passing clouds.29 mph70%29.42 "HgN/A
10:30 PM82 °FSprinkles. Passing clouds.23 mph74%29.45 "HgN/A
10:00 PM82 °FSprinkles. Passing clouds.21 mph79%29.45 "HgN/A
9:30 PM82 °FSprinkles. Partly cloudy.23 mph79%29.45 "Hg4 mi
9:00 PM84 °FSprinkles. Passing clouds.17 mph74%29.47 "Hg6 mi
8:30 PM84 °FSprinkles. Passing clouds.21 mph74%29.47 "HgN/A
8:00 PM84 °FSprinkles. Passing clouds.18 mph74%29.47 "HgN/A
7:30 PM84 °FSprinkles. Partly cloudy.20 mph79%29.47 "HgN/A
7:00 PM82 °FSprinkles. Partly cloudy.16 mph84%29.47 "HgN/A
6:30 PM82 °FSprinkles. Broken clouds.17 mph79%29.50 "HgN/A
6:00 PM81 °FThundershowers. Broken clouds.16 mph84%29.50 "HgN/A
5:47 PM79 °FThunderstorms. Broken clouds.15 mph89%29.50 "Hg3 mi
5:30 PM79 °FThundershowers. Broken clouds.13 mph89%29.53 "Hg2 mi
5:02 PM82 °FStrong thunderstorms. Broken clouds.21 mph84%29.53 "Hg2 mi
4:30 PM84 °FRain showers. Broken clouds.17 mph79%29.50 "Hg2 mi
4:00 PM86 °FSprinkles. Broken clouds.18 mph70%29.53 "HgN/A
3:30 PM86 °FSprinkles. Broken clouds.20 mph70%29.53 "HgN/A
3:00 PM88 °FSprinkles. Broken clouds.17 mph66%29.53 "HgN/A
2:30 PM88 °FSprinkles. Broken clouds.20 mph70%29.53 "HgN/A
2:00 PM88 °FSprinkles. Partly sunny.18 mph70%29.53 "Hg4 mi
1:54 PM88 °FSprinkles. Partly sunny.18 mph70%29.53 "Hg4 mi
1:30 PM90 °FBroken clouds.16 mph67%29.53 "HgN/A
1:00 PM88 °FBroken clouds.16 mph66%29.53 "HgN/A
12:49 PM88 °FBroken clouds.17 mph70%29.56 "HgN/A
12:30 PM86 °FSprinkles. Broken clouds.18 mph75%29.56 "HgN/A
12:00 PM90 °FBroken clouds.17 mph67%29.59 "HgN/A
11:30 AM86 °FPartly sunny.13 mph75%29.59 "HgN/A
11:00 AM86 °FSprinkles. Broken clouds.15 mph75%29.59 "HgN/A
10:30 AM86 °FSprinkles. Partly sunny.17 mph75%29.62 "HgN/A
10:00 AM86 °FSprinkles. Partly sunny.15 mph70%29.62 "HgN/A
9:56 AM86 °FSprinkles. Partly sunny.15 mph70%29.62 "HgN/A
9:30 AM86 °FPartly sunny.15 mph70%29.62 "HgN/A
9:00 AM86 °FBroken clouds.16 mph70%29.62 "HgN/A
Weather by CustomWeather, © 2014

See weather overviewHow to use our weather pages